This is the latest recevied weather packets stored in our database for station/object N4BBA. If no packets are shown the sender has not sent any weather packets the latest 10 day(s).
| Time | Temp. | Humidity | Pressure | Rain* | Wind** | Luminosity | Snow |
|---|---|---|---|---|---|---|---|
| 1777488439 | 23.33° C | 73% | 1010 hPa | 0 mm | - | 373 W/m² | - |
| 1777488137 | 22.78° C | 74% | 1010 hPa | 0 mm | - | 413 W/m² | - |
| 1777487835 | 22.78° C | 74% | 1010.1 hPa | 0 mm | - | 425 W/m² | - |
| 1777487532 | 22.78° C | 75% | 1010.1 hPa | 0 mm | - | 547 W/m² | - |
| 1777487229 | 22.22° C | 75% | 1010.2 hPa | 0 mm | - | 661 W/m² | - |
| 1777486925 | 21.67° C | 76% | 1010.2 hPa | 0 mm | - | 414 W/m² | - |
| 1777486622 | 21.67° C | 76% | 1010.5 hPa | 0 mm | - | 224 W/m² | - |
| 1777486320 | 21.67° C | 77% | 1010.6 hPa | 0 mm | - | 293 W/m² | - |
| 1777486017 | 21.11° C | 78% | 1010.7 hPa | 0 mm | - | 191 W/m² | - |
| 1777485714 | 21.11° C | 78% | 1010.7 hPa | 0 mm | - | 153 W/m² | - |
| 1777485409 | 21.11° C | 77% | 1010.7 hPa | 0 mm | - | 165 W/m² | - |
| 1777485105 | 21.11° C | 77% | 1010.7 hPa | 0 mm | - | 143 W/m² | - |
| 1777484802 | 21.67° C | 77% | 1010.8 hPa | 0 mm | - | 214 W/m² | - |
| 1777484498 | 21.67° C | 77% | 1010.6 hPa | 0 mm | - | 141 W/m² | - |
| 1777484196 | 21.67° C | 77% | 1010.8 hPa | 0 mm | - | 227 W/m² | - |
| 1777483892 | 22.22° C | 76% | 1010.8 hPa | 0 mm | - | 296 W/m² | - |
| 1777483588 | 22.22° C | 77% | 1010.7 hPa | 0 mm | - | 405 W/m² | - |
| 1777483288 | 21.67° C | 78% | 1010.8 hPa | 0 mm | - | 755 W/m² | - |
| 1777482985 | 21.11° C | 79% | 1010.9 hPa | 0 mm | - | 584 W/m² | - |
| 1777482681 | 21.11° C | 79% | 1011 hPa | 0 mm | - | 828 W/m² | - |
| 1777482378 | 21.11° C | 80% | 1011 hPa | 0 mm | - | 566 W/m² | - |
| 1777482075 | 20.56° C | 81% | 1011.1 hPa | 0 mm | - | 429 W/m² | - |
| 1777481773 | 20° C | 82% | 1011.2 hPa | 0 mm | - | 519 W/m² | - |
| 1777481470 | 20° C | 82% | 1011.4 hPa | 0 mm | - | 308 W/m² | - |
| 1777481166 | 20° C | 82% | 1011.4 hPa | 0 mm | - | 328 W/m² | - |
* Rain latest hour (hover to see other rain measurements)
** Current wind speed in m/s (hover to see current wind gust speed)